Home > Weather > Upernavik > Past weeks

Flag for Greenland Past Weather in Upernavik, Greenland — Yesterday and Last 2 Weeks

Now
36 °F

Chilly.


Feels Like: 24 °F
Forecast: 40 / 44 °F
Wind: 26 mph from South

Location: Edderfugle Oeer

Current Time: Jun 30, 2016 at 12:09:25 PM

Latest Report: Jun 30, 2016 at 11:00 AM


Visibility: N/A

Pressure: 30.03 "Hg

Humidity: 97%

Dew Point: 36 °F

Location of UpernavikLocation

Past Weather in Upernavik — Graph

°F

Upernavik Temperature Yesterday

Maximum temperature yesterday: 37 °F (at 12:00 PM)
Minimum temperature yesterday: 33 °F (at 3:00 AM)
Average temperature yesterday: 35 °F

High & Low Weather Summary for the Past Weeks

 TemperatureHumidityPressure
High45 °F (Jun 17, 5:00 PM)100% (Jun 17, 2:00 AM)30.16 "Hg (Jun 17, 2:00 AM)
Low27 °F (Jun 17, 6:00 AM)49% (Jun 17, 4:00 PM)29.50 "Hg (Jun 23, 2:00 PM)
Average35 °F95%29.74 "Hg
* Reported Jun 15 10:00 AM — Jun 30 10:00 AM, Upernavik, Weather by CustomWeather, © 2016

Note: Actual official high and low records may vary slightly from our data, if they occured in-between our weather recording intervals... More about our weather records

Advertising

Upernavik Weather History for the Previous 24 Hours

Scroll right to see more
 ConditionsComfort  
Time TempWeatherWind HumidityBarometerVisibility
10:00 AM
Thu, Jun 30
36 °FChilly.25 mph97%30.02 "HgN/A
9:00 AM35 °FChilly.24 mph98%30.01 "HgN/A
8:00 AM34 °FChilly.29 mph100%29.98 "HgN/A
7:00 AM35 °FChilly.26 mph99%29.97 "HgN/A
6:00 AM35 °FChilly.21 mph100%29.96 "HgN/A
5:00 AM35 °FChilly.21 mph100%29.93 "HgN/A
4:00 AM34 °FChilly.16 mph100%29.91 "HgN/A
3:00 AM34 °FChilly.14 mph100%29.88 "HgN/A
2:00 AM34 °FChilly.9 mph100%29.87 "HgN/A
1:00 AM34 °FChilly.8 mph100%29.85 "HgN/A
12:00 AM34 °FChilly.7 mph100%29.84 "HgN/A
11:00 PM
Wed, Jun 29
34 °FChilly.7 mph99%29.81 "HgN/A
10:00 PM34 °FChilly.3 mph100%29.79 "HgN/A
9:00 PM35 °FChilly.5 mph99%29.78 "HgN/A
8:00 PM36 °FChilly.2 mph98%29.75 "HgN/A
5:00 PM37 °FChilly.15 mph98%29.66 "HgN/A
4:00 PM37 °FChilly.16 mph97%29.64 "HgN/A
3:00 PM37 °FChilly.16 mph98%29.62 "HgN/A
2:00 PM37 °FChilly.16 mph97%29.61 "HgN/A
1:00 PM36 °FChilly.18 mph97%29.61 "HgN/A
12:00 PM37 °FChilly.18 mph97%29.60 "HgN/A
Weather by CustomWeather, © 2016

See weather overviewHow to use our weather pages